Location: İstanbul
(41.0082°N, 28.9784°E)
Time: 20:05:56
(UTC+02:00)

Oscar 11 - Pass Details

Date: 27 October 2021
Orbit: 614 x 623 km, 97.6° (Epoch: 30 November)

Event Time Altitude Azimuth Distance (km) Brightness Sun altitude
Rises 06:51:45 0° 8° (N) 2,906 10.5 -7.7°
Reaches altitude 10° 06:53:58 10° 4° (N) 1,997 9.6 -7.3°
Maximum altitude 06:58:15 59° 285° (WNW) 720 7.1 -6.5°
Drops below altitude 10° 07:02:30 10° 207° (SSW) 1,987 9.5 -5.7°
Sets 07:04:42 0° 203° (SSW) 2,889 10.4 -5.3°
